[[{"header":{"parameterUnit":"m.s-1","parameterCategory":1,"la1":30.2991,"la2":30.254,"lo1":-89.0895,"lo2":-89.0444,"dy":0.0017,"dx":0.0017,"nx":28,"ny":28,"refTime":"2024-08-15T09:00:00:Z","depth":0,"parameterNumber":2,"parameterNumberName":"U-component_of_WINDS"},"data":[0,0,0,0,0,0,0,0,0,0,0,0,0,0,0,0,0,0,0,0,0,0,0,0,0,0,0,0,0,0,0,0,0,0,0,0,0,0,0,0,0,0,0,0,0,0,0,0,0,0,0,0,0,0,0,0,0,0,-0.9753,-0.9753,0,-0.9705,-0.9704,-0.9704,-0.9665,-0.9665,-0.9665,-0.9664,-0.9616,-0.9615,-0.9614,0,0,0,0,0,0,0,0,0,0,0,0,0,-0.9817,-0.9816,-0.9754,-0.9753,-0.9752,-0.9705,-0.9704,-0.9703,-0.9665,-0.9665,-0.9665,-0.9664,-0.9616,-0.9615,-0.9614,0,0,0,0,0,0,0,0,0,0,0,0,0,-0.9781,-0.9816,-0.9754,-0.9728,-0.9725,-0.9705,-0.9704,-0.9703,-0.9666,-0.9665,-0.9664,-0.9664,-0.9617,-0.9615,-0.9614,-0.9617,0,0,-0.961,-0.9609,0,0,0,0,0,0,0,0,-0.9783,-0.9779,-0.9732,-0.9729,-0.9726,-0.969,-0.9709,-0.9674,-0.9666,-0.9688,-0.9664,-0.9664,-0.9641,-0.9638,-0.963,-0.9615,-0.9612,-0.961,-0.9609,-0.9608,-0.9608,0,0,0,0,0,0,0,-0.9786,-0.9781,-0.9734,-0.9731,-0.9728,-0.9719,-0.9714,-0.9702,-0.9669,-0.9686,-0.9683,-0.9678,-0.964,-0.9632,-0.9629,-0.9612,-0.961,-0.9609,-0.9608,-0.9607,-0.9598,-0.9598,0,0,0,0,0,0,-0.9792,-0.9783,-0.9736,-0.9733,-0.9754,-0.9719,-0.9712,-0.9703,-0.9669,-0.9663,-0.9678,-0.9676,-0.9634,-0.963,-0.9627,-0.9628,-0.9608,-0.9607,-0.9606,-0.9597,-0.9598,-0.9599,0,0,0,0,0,0,-0.9793,-0.9788,-0.9738,-0.9757,-0.975,-0.9718,-0.9708,-0.9702,-0.9693,-0.9663,-0.9657,-0.9676,-0.9634,-0.9629,-0.962,-0.9626,-0.9606,-0.9605,-0.9597,-0.9597,-0.9598,-0.9631,0,0,0,0,0,0,-0.9795,-0.9789,-0.9788,-0.9757,-0.9749,-0.973,-0.9708,-0.9701,-0.9691,-0.9688,-0.9659,-0.9654,-0.9633,-0.9622,-0.9618,-0.9624,-0.9604,-0.9596,-0.9597,-0.9598,-0.963,-0.9633,-0.9637,0,0,0,0,0,-0.9798,-0.98,-0.9789,-0.9783,-0.9748,-0.9731,-0.9726,-0.9702,-0.9692,-0.9692,-0.9672,-0.9654,-0.9627,-0.9622,-0.9617,-0.9622,-0.9595,-0.9597,-0.9598,-0.9628,-0.9633,-0.9636,0,0,0,0,0,0,-0.9832,-0.9795,-0.9782,-0.9774,-0.9756,-0.9724,-0.9723,-0.9707,-0.9692,-0.969,-0.9661,-0.9655,-0.9649,-0.9635,-0.963,-0.9624,-0.9609,-0.9609,-0.9633,-0.9637,-0.9641,-0.9644,-0.9603,0,0,0,0,0,-0.9839,-0.9828,-0.9796,-0.9792,-0.9783,-0.9755,-0.9747,-0.973,-0.971,-0.9702,-0.9682,-0.9664,-0.9652,-0.9644,-0.963,-0.9628,-0.9622,-0.963,-0.9633,-0.9636,-0.9637,-0.9636,-0.9639,-0.9603,-0.9603,-0.9603,0,0,-0.9853,-0.9831,-0.9825,-0.9798,-0.9782,-0.9772,-0.9749,-0.9739,-0.9731,-0.9701,-0.9691,-0.9676,-0.9655,-0.9649,-0.9646,-0.9637,-0.9646,-0.9638,-0.964,-0.9639,-0.9637,-0.9641,-0.9644,-0.9604,-0.9604,-0.9604,0,0,-0.9872,-0.9854,-0.9849,-0.9834,-0.981,-0.9792,-0.9791,-0.9762,-0.9751,-0.9741,-0.9719,-0.971,-0.9688,-0.9674,-0.9664,-0.9681,-0.9665,-0.9678,-0.9696,-0.9695,-0.9698,-0.97,-0.9707,-0.971,-0.9679,-0.9679,-0.9679,0,-0.9892,-0.9875,-0.9849,-0.9841,-0.983,-0.9803,-0.9798,-0.9785,-0.9758,-0.9752,-0.9743,-0.9716,-0.97,-0.9691,-0.9696,-0.9689,-0.9687,-0.968,-0.9699,-0.9702,-0.9703,-0.9709,-0.9712,-0.9681,-0.968,-0.968,-0.968,0,-0.9901,-0.989,-0.9889,-0.9864,-0.9853,-0.9847,-0.9822,-0.9814,-0.9799,-0.9782,-0.9773,-0.9753,-0.9735,-0.9732,-0.9717,-0.9722,-0.9718,-0.9705,-0.9688,-0.9709,-0.9714,-0.9716,-0.9683,-0.9683,-0.9682,-0.9682,0,0,-0.9939,-0.9901,-0.9901,-0.989,-0.9863,-0.9854,-0.9848,-0.983,-0.9825,-0.9809,-0.9803,-0.9786,-0.9775,-0.9763,-0.9747,-0.9746,-0.9762,-0.9733,-0.9732,-0.974,-0.9768,-0.9778,-0.9781,-0.9752,-0.9752,-0.9752,-0.977,0,-0.9954,-0.994,-0.9917,-0.9911,-0.9901,-0.9876,-0.9871,-0.9854,-0.9839,-0.9829,-0.9813,-0.9801,-0.9786,-0.978,-0.9778,-0.9761,-0.9768,-0.9759,-0.9747,-0.9747,-0.9752,-0.9783,-0.9793,-0.9811,-0.9772,-0.9772,-0.9772,0,-0.9969,-0.9954,-0.9946,-0.9921,-0.9916,-0.9912,-0.9895,-0.9886,-0.9867,-0.9857,-0.9845,-0.9828,-0.9821,-0.9807,-0.9798,-0.9793,-0.9787,-0.9778,-0.9778,-0.9776,-0.976,-0.9782,-0.9815,-0.9818,-0.9775,-0.9775,-0.9775,0,-0.9998,-0.9976,-0.9969,-0.996,-0.9931,-0.9928,-0.9916,-0.9897,-0.9889,-0.9875,-0.9869,-0.9855,-0.9847,-0.9837,-0.9817,-0.9809,-0.9811,-0.9795,-0.9802,-0.9803,-0.9803,-0.9803,-0.9836,-0.98,-0.98,-0.98,-0.98,0,-1.0017,-1.0013,-0.9981,-0.9977,-0.9973,-0.9948,-0.9945,-0.9931,-0.9915,-0.9908,-0.9886,-0.9881,-0.9854,-0.9846,-0.9831,-0.9826,-0.9823,-0.9814,-0.981,-0.9816,-0.9817,-0.9811,-0.9809,-0.98,-0.98,-0.98,-0.98,0,-1.0048,-1.0026,-1.0017,-0.999,-0.9984,-0.9982,-0.996,-0.9955,-0.994,-0.9932,-0.9929,-0.9904,-0.9894,-0.9873,-0.9856,-0.9846,-0.9845,-0.9838,-0.9851,-0.9848,-0.9857,-0.9857,-0.9887,-0.989,-0.9852,-0.9853,-0.9853,0,-1.0061,-1.0057,-1.0031,-1.0025,-1.0014,-1.0004,-0.9996,-0.9972,-0.9965,-0.9945,-0.9943,-0.9931,-0.992,-0.9905,-0.9886,-0.9874,-0.9866,-0.9878,-0.9864,-0.9871,-0.9867,-0.9867,-0.9867,-0.9881,-0.9881,-0.9882,-0.9882,0,-1.0086,-1.0076,-1.0065,-1.005,-1.0041,-1.0028,-1.0015,-1.0011,-0.9985,-0.9978,-0.9967,-0.9958,-0.9942,-0.9931,-0.9916,-0.9905,-0.989,-0.9887,-0.9888,-0.9893,-0.9901,-0.9898,-0.9859,-0.9886,-0.9885,-0.9885,-0.9885,-0.9885,-1.0109,-1.0105,-1.0086,-1.0075,-1.0062,-1.0051,-1.0046,-1.003,-1.002,-1.0005,-0.9992,-0.9982,-0.9966,-0.9945,-0.9935,-0.9928,-0.9921,-0.9922,-0.9922,-0.9923,-0.9926,-0.9903,-0.9926,-0.9925,-0.9925,-0.9925,-0.9925,0,-1.0133,-1.0121,-1.011,-1.0092,-1.0084,-1.007,-1.0055,-1.0049,-1.004,-1.0026,-1.0016,-1.0005,-0.9994,-0.9976,-0.9964,-0.9962,-0.9955,-0.9959,-0.9959,-0.9957,-0.9933,-0.9933,-0.9966,-0.9966,-0.9966,-0.9966,-0.9966,-0.9966,-1.0145,-1.0139,-1.0127,-1.0115,-1.0103,-1.0093,-1.0085,-1.0075,-1.0064,-1.0051,-1.0042,-1.0031,-1.0015,-1.0002,-0.9993,-0.9988,-0.9984,-0.9992,-0.9985,-0.9962,-0.9959,-0.9955,-0.9955,-0.9991,-0.9991,-1.0009,-1.0009,-1.0009]},{"header":{"parameterUnit":"m.s-1","parameterCategory":1,"la1":30.2991,"la2":30.254,"lo1":-89.0895,"lo2":-89.0444,"dy":0.0017,"dx":0.0017,"nx":28,"ny":28,"refTime":"2024-08-15T09:00:00:Z","depth":0,"parameterNumber":3,"parameterNumberName":"V-component_of_WINDS"},"data":[0,0,0,0,0,0,0,0,0,0,0,0,0,0,0,0,0,0,0,0,0,0,0,0,0,0,0,0,0,0,0,0,0,0,0,0,0,0,0,0,0,0,0,0,0,0,0,0,0,0,0,0,0,0,0,0,0,0,3.2926,3.2926,0,3.2948,3.2948,3.2949,3.2957,3.2956,3.2956,3.2956,3.2975,3.2976,3.2977,0,0,0,0,0,0,0,0,0,0,0,0,0,3.2885,3.2885,3.2926,3.2926,3.2927,3.2948,3.2948,3.2949,3.2957,3.2956,3.2956,3.2956,3.2975,3.2976,3.2977,0,0,0,0,0,0,0,0,0,0,0,0,0,3.2904,3.2886,3.2926,3.2933,3.2934,3.2948,3.2948,3.2949,3.2957,3.2956,3.2956,3.2956,3.2975,3.2976,3.2977,3.2984,0,0,3.2979,3.298,0,0,0,0,0,0,0,0,3.2903,3.2906,3.2932,3.2933,3.2934,3.295,3.2941,3.2961,3.2957,3.2948,3.2956,3.2956,3.2967,3.2968,3.2973,3.2985,3.2986,3.2979,3.298,3.298,3.2981,0,0,0,0,0,0,0,3.2902,3.2905,3.2935,3.2932,3.2933,3.2933,3.2936,3.2945,3.2957,3.2949,3.2949,3.2952,3.2967,3.2972,3.2973,3.2986,3.2979,3.298,3.2981,3.2981,3.3002,3.3002,0,0,0,0,0,0,3.29,3.2904,3.2934,3.2935,3.2918,3.2934,3.2937,3.2945,3.2957,3.2959,3.2952,3.2952,3.297,3.2972,3.2974,3.2981,3.298,3.2981,3.2982,3.3002,3.3002,3.3002,0,0,0,0,0,0,3.2899,3.2902,3.2933,3.292,3.2924,3.2935,3.2943,3.2945,3.295,3.296,3.2962,3.2955,3.297,3.2973,3.2981,3.2982,3.2982,3.2982,3.3002,3.3002,3.3002,3.2997,0,0,0,0,0,0,3.2898,3.2902,3.2907,3.292,3.2924,3.2942,3.2943,3.2946,3.2951,3.2952,3.2963,3.2965,3.297,3.298,3.2982,3.2983,3.2983,3.3002,3.3002,3.3002,3.2997,3.2997,3.2997,0,0,0,0,0,3.2896,3.2905,3.2907,3.2911,3.2931,3.2942,3.2944,3.2952,3.2952,3.2955,3.2961,3.2964,3.2981,3.298,3.2983,3.2984,3.3002,3.3002,3.3002,3.2997,3.2997,3.2997,0,0,0,0,0,0,3.2891,3.2907,3.2909,3.2923,3.2931,3.2943,3.2948,3.2952,3.2959,3.2959,3.2967,3.2969,3.2976,3.2981,3.298,3.299,3.2991,3.2992,3.2987,3.2987,3.2987,3.2985,3.2984,0,0,0,0,0,3.2892,3.2901,3.2914,3.2924,3.2928,3.2937,3.2942,3.2947,3.2955,3.2959,3.2966,3.2972,3.2979,3.2983,3.299,3.2997,3.2998,3.2999,3.2999,3.2999,3.2999,3.3,3.3,3.3002,3.3002,3.3002,0,0,3.2893,3.2902,3.2908,3.2923,3.293,3.2937,3.294,3.2949,3.2954,3.296,3.2968,3.2973,3.298,3.2988,3.2991,3.2992,3.2999,3.2999,3.2999,3.2999,3.3,3.3,3.3,3.3002,3.3002,3.3002,0,0,3.2899,3.2908,3.2916,3.2922,3.2933,3.2938,3.294,3.2951,3.2955,3.2963,3.2967,3.2971,3.2983,3.2988,3.2992,3.2995,3.2997,3.2997,3.2995,3.2996,3.2996,3.2996,3.2995,3.2995,3.2997,3.2997,3.2997,0,3.2899,3.2912,3.292,3.2927,3.2932,3.2938,3.2944,3.295,3.2961,3.2964,3.2965,3.2977,3.2983,3.299,3.2991,3.2994,3.2994,3.2996,3.2996,3.2996,3.2996,3.2995,3.2995,3.2997,3.2997,3.2997,3.2997,0,3.2909,3.2918,3.2923,3.2934,3.2939,3.2947,3.2953,3.2957,3.296,3.2965,3.2971,3.2978,3.2985,3.2987,3.299,3.2993,3.2993,3.2995,3.2996,3.2995,3.2994,3.2994,3.2996,3.2996,3.2996,3.2996,0,0,3.2915,3.2928,3.2929,3.2933,3.2943,3.2949,3.2954,3.2961,3.2964,3.297,3.2974,3.2982,3.2983,3.2987,3.299,3.2991,3.299,3.2993,3.2993,3.299,3.2991,3.2989,3.2988,3.2992,3.2992,3.2992,3.2989,0,3.292,3.2933,3.2938,3.2946,3.2952,3.2956,3.296,3.2966,3.2969,3.2973,3.2977,3.2982,3.2984,3.2986,3.2987,3.299,3.299,3.299,3.2993,3.2993,3.299,3.2988,3.2987,3.2985,3.2989,3.2989,3.2989,0,3.293,3.2936,3.2945,3.2951,3.2954,3.2958,3.2963,3.2968,3.2972,3.2974,3.2978,3.298,3.2984,3.2984,3.2988,3.2988,3.2988,3.299,3.299,3.299,3.2991,3.2987,3.2984,3.2983,3.2989,3.2989,3.2989,0,3.293,3.2941,3.2947,3.295,3.2958,3.296,3.2963,3.2968,3.297,3.2974,3.2975,3.2979,3.2981,3.2983,3.2986,3.2987,3.2988,3.299,3.2988,3.2988,3.2988,3.2988,3.2984,3.299,3.299,3.299,3.299,0,3.2935,3.294,3.2946,3.295,3.2954,3.2959,3.2963,3.2966,3.2969,3.2972,3.2975,3.2977,3.2981,3.2983,3.2985,3.2985,3.2987,3.2987,3.2987,3.2986,3.2986,3.2987,3.2986,3.299,3.299,3.299,3.299,0,3.2937,3.2942,3.2948,3.2954,3.2955,3.2958,3.2963,3.2965,3.2967,3.297,3.2971,3.2975,3.2977,3.298,3.2983,3.2983,3.2983,3.2985,3.2982,3.2982,3.298,3.2979,3.2976,3.2975,3.2982,3.2982,3.2982,0,3.294,3.2943,3.2949,3.2951,3.2954,3.2958,3.296,3.2964,3.2966,3.2969,3.297,3.2972,3.2974,3.2977,3.2979,3.298,3.298,3.2979,3.2981,3.2978,3.2978,3.2978,3.2977,3.2978,3.2978,3.2978,3.2978,0,3.2943,3.2945,3.2949,3.2952,3.2955,3.2958,3.2961,3.2962,3.2965,3.2967,3.2969,3.297,3.2972,3.2973,3.2974,3.2976,3.2977,3.2977,3.2977,3.2976,3.2973,3.2973,3.298,3.2978,3.2978,3.2978,3.2978,3.2978,3.2944,3.2947,3.295,3.2953,3.2956,3.2958,3.2959,3.2961,3.2963,3.2966,3.2967,3.2968,3.2969,3.2971,3.2971,3.2971,3.2972,3.2972,3.2971,3.2971,3.297,3.2974,3.2971,3.2971,3.2971,3.2971,3.2971,0,3.2947,3.2948,3.2951,3.2955,3.2956,3.2958,3.296,3.2961,3.2962,3.2963,3.2965,3.2965,3.2965,3.2966,3.2966,3.2965,3.2966,3.2965,3.2965,3.2965,3.297,3.297,3.2965,3.2965,3.2965,3.2965,3.2965,3.2965,3.2948,3.2951,3.2952,3.2955,3.2956,3.2958,3.2958,3.2959,3.296,3.2961,3.2961,3.2962,3.2962,3.2961,3.2961,3.2961,3.296,3.2959,3.2959,3.2964,3.2965,3.2965,3.2965,3.2959,3.2959,3.2954,3.2954,3.2954]}]]